Content
SEND FEEDBACK

Daily
Averages
Monthly
Summary
United States of America

CRESCENT CITY, CALIFORNIA


Home > North America > United States > California
Elevation: 56 feet     Latitude: 41 46N     Longitude: 124 14W

WEATHER
 
SELECT A DAY
Number of Records: 274,905;   Date Range: 1/1/95 - 11/24/14
 
SHARE

PRINT THIS DATA

[ ← Previous Day ]
WEATHER ALMANAC - OCTOBER 12, 2013
[ Next Day → ]
[ °C ]   °F
Weather ElementAverageHighLow
Temperature46.2 °F53.1 °F (11:56 am)41 °F (1:47 am)
Dewpoint44.5 °F48.2 °F (10:14 am)39.2 °F (1:06 am)
Humidity93.9 %100 % (2:56 am)80 % (11:56 am)
Barometer30.08 in30.11 in (1:06 am)30.05 in (4:56 pm)
Wind Speed2.5 mph8.1 mph (12:56 pm)
Weather ElementAverage
Visibility5.6 mi
Wind DirectionESE (126 °)

Weather ElementTotal
Precipitation0.07 in
Heating Degree Days18 (Base 65)
Averaged from 43 records on October 12, 2013
WEATHER CONDITIONS BREAKOUT
WIND DIRECTION BREAKOUT
WEATHER BY HOUR - OCTOBER 12, 2013
[ °C ]   °F
Local TimeTemperatureDewpointHumidityBarometerVisibilityWind DirectionWind SpeedGust SpeedPrecipitationEventsConditions
1:06 AM42.8 °F39.2 °F87 %30.11 in1.8 miCalmPartly Cloudy
1:09 AM42.8 °F39.2 °F87 %30.11 in1.0 miCalmMist
1:25 AM42.8 °F41.0 °F93 %30.11 in1.5 miCalmScattered Clouds
1:35 AM42.8 °F39.2 °F87 %30.11 in2.0 miCalmScattered Clouds
1:47 AM41.0 °F39.2 °F93 %30.11 in4.0 miCalmClear
1:56 AM41.0 °F39.9 °F96 %30.11 in5.0 miCalmClear
2:56 AM43.0 °F43.0 °F100 %30.11 in10.0 miCalmClear
3:56 AM41.0 °F41.0 °F100 %30.10 in10.0 miCalmClear
4:56 AM42.1 °F41.0 °F96 %30.10 in10.0 miCalmClear
5:56 AM43.0 °F42.1 °F97 %30.10 in10.0 miCalmOvercast
6:56 AM43.0 °F42.1 °F97 %30.09 in10.0 miEast (90°)3.5 mphMostly Cloudy
7:56 AM44.1 °F43.0 °F96 %30.09 in10.0 miEast (100°)3.5 mphOvercast
8:56 AM46.9 °F45.0 °F93 %30.10 in10.0 miCalm0.00 inPartly Cloudy
9:49 AM51.8 °F46.4 °F82 %30.09 in10.0 miCalmMostly Cloudy
9:56 AM51.1 °F46.9 °F86 %30.10 in10.0 miCalmOvercast
10:14 AM51.8 °F48.2 °F88 %30.09 in6.0 miCalmOvercast
10:56 AM52.0 °F48.0 °F86 %30.09 in10.0 miSSW (200°)4.6 mphScattered Clouds
11:56 AM53.1 °F46.9 °F80 %30.08 in10.0 miSouth (190°)6.9 mphOvercast
12:56 PM52.0 °F46.9 °F83 %30.08 in10.0 miSW (230°)8.1 mphMostly Cloudy
1:56 PM51.1 °F46.9 °F86 %30.07 in9.0 miSouth (190°)3.5 mph0.00 inRainLight Rain
2:56 PM51.1 °F48.0 °F89 %30.07 in6.0 miCalm0.05 inRainLight Rain
3:56 PM50.0 °F48.0 °F93 %30.06 in10.0 miNW (320°)3.5 mph0.02 inRainLight Rain
4:56 PM51.1 °F48.0 °F89 %30.05 in7.0 miNW (310°)5.8 mph0.00 inMostly Cloudy
5:56 PM50.0 °F48.0 °F93 %30.06 in7.0 miNNW (340°)3.5 mphOvercast
6:46 PM48.2 °F46.4 °F93 %30.05 in2.0 miCalmClear
6:56 PM48.0 °F46.0 °F93 %30.05 in3.0 miCalmClear
7:56 PM45.0 °F44.1 °F97 %30.06 in7.0 miNW (310°)4.6 mphMostly Cloudy
7:59 PM44.6 °F44.6 °F100 %30.05 in2.0 miNW (310°)3.5 mphMostly Cloudy
8:01 PM44.6 °F42.8 °F93 %30.05 in1.2 miCalmMostly Cloudy
8:13 PM44.6 °F44.6 °F100 %30.05 in1.2 miNW (320°)3.5 mphMostly Cloudy
8:17 PM44.6 °F44.6 °F100 %30.05 in0.8 miNW (320°)3.5 mphMostly Cloudy
8:26 PM44.6 °F44.6 °F100 %30.05 in1.0 miNorth (350°)3.5 mphMist
8:29 PM44.6 °F44.6 °F100 %30.05 in1.5 miNorth (350°)3.5 mphScattered Clouds
8:35 PM44.6 °F44.6 °F100 %30.05 in3.0 miNorth (10°)3.5 mphPartly Cloudy
8:56 PM45.0 °F44.1 °F97 %30.06 in2.0 miNNW (340°)4.6 mphMostly Cloudy
8:58 PM44.6 °F44.6 °F100 %30.06 in1.2 miNW (320°)5.8 mphMostly Cloudy
9:06 PM44.6 °F42.8 °F93 %30.06 in0.5 miNNW (340°)4.6 mphFogFog
9:22 PM46.4 °F46.4 °F100 %30.06 in1.5 miNorth (10°)3.5 mphMostly Cloudy
9:25 PM46.4 °F46.4 °F100 %30.06 in4.0 miNorth (10°)4.6 mphMostly Cloudy
9:35 PM46.4 °F46.4 °F100 %30.06 in5.0 miNorth (360°)3.5 mphScattered Clouds
9:56 PM46.0 °F46.0 °F100 %30.07 in8.0 miNE (40°)3.5 mphPartly Cloudy
10:56 PM48.0 °F46.9 °F96 %30.07 in9.0 miNNE (20°)4.6 mphClear
11:56 PM46.0 °F46.0 °F100 %30.07 in7.0 miNE (40°)5.8 mphClear
Hourly data recorded from KCEC, located miles away from Crescent City, California







STORIES FROM OUR PARTNERS